Hourly Data Report for July 11, 2021

PRINCE RUPERT
BRITISH COLUMBIA
Current Station Operator: NAVCAN

54°17'10.000" N
130°26'41.000" W
35.40 m
1066482
71022
YPR

Download Data

Hourly Data (July 2021)
Hourly Data Report for July 11, 2021
TIME
LST
Temp Definition
°C
Dew Point Definition
°C
Rel Hum Definition
%
Precip. Amount Definition
mm

Wind Dir Definition
10's deg

Wind Spd Definition
km/h
Visibility Definition
km
Stn Press Definition
kPa
Hmdx Definition


Wind Chill Definition


Weather Definition


00:00 13.6 12.2 91 0.0   0 16.1 101.93     LegendNANA
01:00 13.6 12.2 91 0.0 12 4 16.1 101.93     LegendNANA
02:00 13.4 12.0 91 0.0 6 4 16.1 101.91     LegendNANA
03:00 13.6 11.8 89 0.0 6 8 16.1 101.90     LegendNANA
04:00 13.0 11.7 92 0.0   0 16.1 101.90     LegendNANA
05:00 12.8 11.7 93 0.0 16 5 16.1 101.89     LegendNANA
06:00 13.4 11.9 90 0.0 15 4 16.1 101.92     LegendNANA
07:00 14.3 12.2 87 0.0 LegendMM 4 16.1 101.91     LegendNANA
08:00 14.3 11.8 85 0.0 22 5 16.1 101.93     LegendNANA
09:00 15.2 12.2 82 0.0 23 5 16.1 101.93     LegendNANA
10:00 16.8 12.2 74 0.0 33 11 16.1 101.94     LegendNANA
11:00 14.8 12.4 85 0.0 28 17 16.1 101.96     LegendNANA
12:00 15.7 12.8 83 0.0 29 11 16.1 101.96     LegendNANA
13:00 15.8 12.4 80 0.0 29 13 16.1 101.95     LegendNANA
14:00 17.0 11.9 72 0.0 29 13 16.1 101.92     LegendNANA
15:00 17.4 12.6 73 0.0 27 9 16.1 101.90     LegendNANA
16:00 17.4 11.9 70 0.0 27 11 16.1 101.87     LegendNANA
17:00 17.2 11.8 70 0.0 26 9 16.1 101.85     LegendNANA
18:00 17.1 12.2 73 0.0 31 5 16.1 101.83     LegendNANA
19:00 16.5 11.7 73 0.0 32 5 16.1 101.81     LegendNANA
20:00 15.8 11.6 76 0.0 LegendMM 4 16.1 101.78     LegendNANA
21:00 15.2 11.6 79 0.0   0 16.1 101.78     LegendNANA
22:00 13.8 11.9 88 0.0 25 4 16.1 101.77     LegendNANA
23:00 13.4 11.2 87 0.0 4 4 16.1 101.75     LegendNANA

Notes on Data Quality.

Legend

  • E = Estimated
  • M = Missing
  • NA = Not Available*
  • [empty] = Indicates an unobserved value
Date modified: